Challenge Hesbignon

Le jogging du T.T. Tillier à Fernelmont (5.40 km)

dimanche 04 mars 2018

Le classement original se trouve sur : http://www.challengehesbignon.be/
CHALLENGE HESBIGNON
LE JOGGING DU T.T. TILLIER - FERNELMONT
DISTANCE 5.40 km
dimanche 04 mars 2018
 
Place dos Nom Cat. Pl/Cat. temps temps/km Vitesse
1 850 VANMUNSTER mathias H 1 00:19:07 03:32 16.95
2 855 FRANCOIS sebastien H 2 00:19:21 03:35 16.74
3 819 MANETTE olivier H 3 00:19:52 03:41 16.31
4 5270 DE WASSEIGE Guillaume H 4 00:20:33 03:48 15.77
5 5205 ROLLAND THOMAS H 5 00:20:50 03:51 15.55
6 5231 LOTIN François H 6 00:21:07 03:55 15.34
7 890 CRISTOFULI Marco H 7 00:21:13 03:56 15.27
8 5222 VAN DEN BOSSCHE Marnik H 8 00:21:19 03:57 15.20
9 5255 MOREAU François H 9 00:21:31 03:59 15.06
10 891 VANMEERHAEGHE Mathys CH 1 00:21:33 03:59 15.03
11 862 OLIVIER bastien CH 2 00:21:55 04:04 14.78
12 882 MERTENS Hugo H 10 00:22:42 04:12 14.27
13 856 DRIESEN jet F 1 00:22:44 04:13 14.25
14 844 LEROY louis CH 3 00:22:44 04:13 14.25
15 854 COX benoit H 11 00:22:49 04:14 14.20
16 5219 CAMOZZI MAXIME H 12 00:22:58 04:15 14.11
17 5218 RONVEAUX ALAIN H 13 00:23:12 04:18 13.97
18 5239 DE WASSEIGE Mathéo EH 1 00:23:36 04:22 13.73
19 866 SCALAIS benoit CH 4 00:23:46 04:24 13.63
20 888 MAES Bart H 14 00:23:51 04:25 13.58
21 5223 HOUGARDY Adam EH 2 00:24:09 04:28 13.42
22 836 VANVINCKENROYE bernard H 15 00:24:14 04:29 13.37
23 5257 HEINE SIMON CH 5 00:24:17 04:30 13.34
24 5204 NOEL MIGUEL H 16 00:24:35 04:33 13.18
25 843 BECK sandrine F 2 00:24:50 04:36 13.05
26 5259 GERSTMANS TOM CH 6 00:24:52 04:36 13.03
27 887 DE ALMEIDA Carlos H 17 00:24:56 04:37 12.99
28 864 VAN DE WIELE gilles H 18 00:25:07 04:39 12.90
29 5276 PIERRE Quentin H 19 00:25:27 04:43 12.73
30 883 GALLIN Roeland H 20 00:25:36 04:44 12.66
31 5273 BLEUS Robin H 21 00:25:43 04:46 12.60
32 884 VAN ERDEWIJK Sara F 3 00:25:44 04:46 12.59
33 5215 JACQUET Catherine F 4 00:26:09 04:51 12.39
34 825 FRISON aaron CH 7 00:26:23 04:53 12.28
35 860 BARROIT dominique H 22 00:26:43 04:57 12.13
36 5250 BRION Geoffrey H 23 00:26:48 04:58 12.09
37 5203 MOTTIN Marc H 24 00:26:54 04:59 12.04
38 5260 NOEL JULIAN H 25 00:27:08 05:01 11.94
39 865 VAN DE WIELE thibaut CH 8 00:27:39 05:07 11.72
40 5274 RONVAUX Julien H 26 00:28:17 05:14 11.46
41 833 DAMRY nicolas H 27 00:28:28 05:16 11.38
42 5277 HENROUL Olivier H 28 00:28:35 05:18 11.34
43 868 WERY matias CH 9 00:28:36 05:18 11.33
44 5211 THISE Cyril H 29 00:28:45 05:19 11.27
45 5224 VESCERA Teresa F 5 00:28:46 05:20 11.26
46 848 FONTAINE lucie F 6 00:28:49 05:20 11.24
47 831 POELMANS sylvie F 7 00:29:00 05:22 11.17
48 845 LEROY antoine CH 10 00:29:01 05:22 11.17
49 879 ELIARD Marine EF 1 00:29:05 05:23 11.14
50 837 DOCQUIER manon EF 2 00:29:05 05:23 11.14
51 5249 BRION Matthaus CH 11 00:29:11 05:24 11.10
52 5210 LARUELLE Jeremy H 30 00:29:12 05:24 11.10
53 5271 PIEDBOEUF Adrien H 31 00:29:31 05:28 10.98
54 5245 GREGOIRE Camille CF 1 00:29:44 05:30 10.90
55 5244 GREGOIRE Denis H 32 00:29:44 05:30 10.90
56 5254 POLIDOR Patrick H 33 00:30:03 05:34 10.78
57 5258 POSKIN NANCY F 8 00:30:10 05:35 10.74
58 5242 SERUOTTE Catherine F 9 00:30:22 05:37 10.67
59 852 HEINE veronique F 10 00:30:25 05:38 10.65
60 5208 DECLOUX MATHIAS CH 12 00:30:35 05:40 10.59
61 5207 DECLOUX GILLES H 34 00:30:36 05:40 10.59
62 5265 LEFEBVRE Bastien H 35 00:30:46 05:42 10.53
63 5263 PALATE Bertrand H 36 00:30:46 05:42 10.53
64 5264 LABBE Jean-Philippe H 37 00:30:46 05:42 10.53
65 5256 WILLEQUET Anne F 11 00:31:03 05:45 10.43
66 5217 CHARDON Ariane F 12 00:31:08 05:46 10.41
67 5216 COLETTE Vincent H 38 00:31:08 05:46 10.41
68 5221 DE WASSEIGE Eric H 39 00:31:13 05:47 10.38
69 826 FRISON mattew CH 13 00:31:17 05:48 10.36
70 5269 MICHAUX Denis H 40 00:31:32 05:50 10.27
71 5234 DORMAL Lucas CH 14 00:31:36 05:51 10.25
72 820 VANHEES vicky F 13 00:31:38 05:51 10.24
73 5230 TARGEZ Pauline F 14 00:31:52 05:54 10.17
74 892 NIJS Monique F 15 00:32:07 05:57 10.09
75 881 BOLANGER Jens CH 15 00:32:15 05:58 10.05
76 838 LEKEU joey H 41 00:32:28 06:01 9.98
77 847 LEKEUX pauline CF 2 00:32:45 06:04 9.89
78 5202 COPETTE Pierre H 42 00:32:51 06:05 9.86
79 5201 COPETTE Marie F 16 00:32:51 06:05 9.86
80 878 ELIARD Fabien H 43 00:33:01 06:07 9.81
81 5209 LAMBERT Johanne F 17 00:33:03 06:07 9.80
82 880 BOLANGER Keano CH 16 00:33:18 06:10 9.73
83 885 VANDERWAEREN Silke F 18 00:33:40 06:14 9.62
84 5272 BEYAERT Jane F 19 00:33:41 06:14 9.62
85 851 BERNARD lucette F 20 00:33:47 06:15 9.59
86 823 APPLINCOURT jean-pierre H 44 00:33:54 06:17 9.56
87 5266 BOISSET Sandrine F 21 00:33:58 06:17 9.54
88 5236 DELEUZE Pauline F 22 00:34:00 06:18 9.53
89 5226 CEUNEN Goedele F 23 00:34:07 06:19 9.50
90 893 VANDERSTEEN Inez F 24 00:34:16 06:21 9.46
91 5225 MAES Lukas H 45 00:34:28 06:23 9.40
92 872 ZWAENEPOEL manon F 25 00:34:34 06:24 9.37
93 840 WEEMAELS noa CH 17 00:34:47 06:26 9.31
94 5261 DUMON DELPHINE F 26 00:34:53 06:28 9.29
95 830 LONGRIE thomas H 46 00:35:13 06:31 9.20
96 5235 CREETEN SABRINA H 47 00:35:17 06:32 9.18
97 5238 RENSON Sarah F 27 00:35:22 06:33 9.16
98 5237 RENSON Benjamin H 48 00:35:22 06:33 9.16
99 5253 ANTOINE Catherine F 28 00:35:29 06:34 9.13
100 821 DEBIEVRE lionel CH 18 00:35:38 06:36 9.09
101 5220 VANDENBROUCKE Sabine F 29 00:35:48 06:38 9.05
102 841 LEMMENS isabelle F 30 00:36:28 06:45 8.88
103 839 LEROY jean-francois H 49 00:36:29 06:45 8.88
104 5233 DELMARCELLE Marie F 31 00:36:30 06:46 8.88
105 5252 BODART Annick F 32 00:36:34 06:46 8.86
106 822 DEBIEVRE gaelle EF 3 00:36:42 06:48 8.83
107 5241 VIDIRI Alessia CF 3 00:37:07 06:52 8.73
108 5240 GUDIN Stéphanie F 33 00:37:08 06:53 8.73
109 5275 DUPONT Aurelie F 34 00:37:14 06:54 8.70
110 886 DEVOS Erine CF 4 00:37:36 06:58 8.62
111 5213 FRANCART Elisabeth CF 5 00:37:36 06:58 8.62
112 846 LEROY nicolas H 50 00:37:41 06:59 8.60
113 824 CATOUL olivier H 51 00:37:57 07:02 8.54
114 5243 GUDIN Christine F 35 00:38:32 07:08 8.41
115 5228 FERON Thomas H 52 00:38:35 07:09 8.40
116 5214 TRUSSART Sylvie F 36 00:38:36 07:09 8.39
117 5227 BOURGUIGNON Guy H 53 00:38:36 07:09 8.39
118 5232 BOURGUIGNON Catherine F 37 00:38:44 07:10 8.36
119 5246 BONMARIAGE Sophie F 38 00:40:03 07:25 8.09
120 5247 NURKOWSKI Sara F 39 00:40:03 07:25 8.09
121 5248 GRAINDOR Joële F 40 00:42:46 07:55 7.58
122 5262 LEVEQUE Coline F 41 00:43:57 08:08 7.37
123 5267 FLAMENT Maelyssa F 42 00:43:58 08:09 7.37
124 5268 DELMEZ Coraline F 43 00:43:58 08:09 7.37
125 873 ZWAENEPOEL marie F 44 00:44:47 08:18 7.23
126 861 HOEBREGHTS laurence F 45 00:44:47 08:18 7.23
127 5229 WAROQUIER Olivia F 46 00:45:00 08:20 7.20
128 5251 DOTREPPE Floriane F 47 00:45:01 08:20 7.20
129 849 PETRE catherine F 48 00:45:57 08:31 7.05